[[{"header":{"parameterUnit":"m.s-1","parameterCategory":1,"la1":30.2991,"la2":30.254,"lo1":-89.0895,"lo2":-89.0444,"dx":0.0017,"dy":0.0017,"nx":28,"ny":28,"refTime":"2023-01-10T15:00:00:Z","depth":0,"parameterNumber":2,"parameterNumberName":"U-component_of_WINDS"},"data":[0,0,0,0,0,0,0,0,0,0,0,0,0,0,0,0,0,0,0,0,0,0,0,0,0,0,0,0,0,0,0,0,0,0,0,0,0,0,0,0,0,0,0,0,0,0,0,0,0,0,0,0,0,0,0,0,0,0,2.7928,2.7928,0,2.7953,2.7954,2.7954,2.7947,2.7947,2.7946,2.7946,2.7974,2.7975,2.7976,0,0,0,0,0,0,0,0,0,0,0,0,0,2.7876,2.7877,2.7928,2.7928,2.7928,2.7953,2.7954,2.7954,2.7947,2.7947,2.7946,2.7945,2.7973,2.7975,2.7976,0,0,0,0,0,0,0,0,0,0,0,0,0,2.7899,2.7877,2.7928,2.7928,2.7928,2.7953,2.7954,2.7954,2.7947,2.7947,2.7946,2.7945,2.7973,2.7975,2.7976,2.8003,0,0,2.7982,2.7983,0,0,0,0,0,0,0,0,2.7898,2.7901,2.7927,2.7928,2.7928,2.7946,2.7946,2.7971,2.7948,2.794,2.7946,2.7945,2.7965,2.7968,2.7974,2.8005,2.8006,2.7982,2.7983,2.7984,2.7985,0,0,0,0,0,0,0,2.7896,2.79,2.7938,2.7928,2.7928,2.7928,2.793,2.795,2.7957,2.7941,2.794,2.7943,2.7965,2.7972,2.7975,2.8006,2.7982,2.7984,2.7985,2.7986,2.8063,2.8064,0,0,0,0,0,0,2.7894,2.7899,2.7937,2.7939,2.7911,2.7929,2.7932,2.7941,2.7956,2.7958,2.7944,2.7943,2.797,2.7973,2.7976,2.801,2.7984,2.7986,2.7987,2.8062,2.8063,2.8064,0,0,0,0,0,0,2.7893,2.7898,2.7936,2.7919,2.7923,2.7931,2.7941,2.7942,2.7949,2.7959,2.796,2.795,2.7969,2.7973,2.7997,2.8011,2.7987,2.7988,2.8061,2.8062,2.8063,2.8077,0,0,0,0,0,0,2.7892,2.7897,2.7907,2.7919,2.7924,2.7956,2.7942,2.7943,2.7952,2.7951,2.7965,2.7966,2.7969,2.7994,2.7999,2.8013,2.799,2.8059,2.8061,2.8063,2.8076,2.8079,2.8082,0,0,0,0,0,2.789,2.7909,2.7907,2.7912,2.7936,2.7956,2.796,2.7962,2.7953,2.7964,2.797,2.7966,2.8009,2.7997,2.8002,2.8017,2.8059,2.8061,2.8063,2.8074,2.8078,2.8082,0,0,0,0,0,0,2.7898,2.7911,2.7909,2.7932,2.7943,2.7955,2.7968,2.7966,2.7979,2.7978,2.798,2.7984,2.8008,2.8015,2.8001,2.8045,2.8033,2.8036,2.8039,2.8043,2.8047,2.8045,2.7991,0,0,0,0,0,2.7903,2.7918,2.7928,2.7948,2.7954,2.796,2.7969,2.797,2.7981,2.7986,2.7994,2.8007,2.8023,2.8034,2.8049,2.8077,2.8081,2.809,2.8093,2.8095,2.8098,2.8116,2.812,2.8071,2.8071,2.8071,0,0,2.7913,2.7921,2.793,2.795,2.7959,2.7975,2.7964,2.7981,2.7994,2.7989,2.8012,2.8019,2.8033,2.8059,2.8071,2.8065,2.8113,2.8098,2.81,2.8102,2.8118,2.8123,2.8127,2.8072,2.8072,2.8072,0,0,2.7939,2.7946,2.7965,2.7974,2.7987,2.7992,2.7996,2.8009,2.8013,2.8037,2.8034,2.805,2.8077,2.8088,2.8097,2.813,2.8128,2.8135,2.8152,2.8169,2.8173,2.8176,2.8189,2.8194,2.8138,2.8138,2.8138,0,2.7949,2.7973,2.7975,2.7993,2.8002,2.7999,2.8019,2.8028,2.8046,2.8053,2.8047,2.8083,2.8092,2.8122,2.813,2.8137,2.8144,2.8133,2.8172,2.8175,2.8179,2.8191,2.8196,2.8139,2.8139,2.8139,2.8139,0,2.7986,2.8003,2.8016,2.8034,2.8045,2.8064,2.807,2.8081,2.8082,2.8088,2.8113,2.8124,2.8142,2.815,2.815,2.8181,2.8177,2.8171,2.8159,2.8184,2.8196,2.8201,2.814,2.814,2.814,2.814,0,0,2.8017,2.8037,2.8042,2.8051,2.8066,2.808,2.81,2.8118,2.8128,2.8142,2.8159,2.8184,2.8179,2.819,2.8192,2.8206,2.8234,2.8199,2.8199,2.8206,2.8271,2.8276,2.8281,2.8233,2.8234,2.8234,2.827,0,2.8045,2.8079,2.8082,2.8113,2.813,2.8128,2.8146,2.8158,2.8165,2.8181,2.8188,2.8206,2.8198,2.8204,2.8219,2.8228,2.8248,2.8225,2.8251,2.8252,2.8248,2.8287,2.8292,2.8325,2.8275,2.8276,2.8276,0,2.8082,2.8097,2.813,2.8145,2.8152,2.8168,2.8186,2.8201,2.8216,2.822,2.8233,2.8233,2.8255,2.8243,2.8274,2.8259,2.827,2.8276,2.8278,2.828,2.8265,2.8292,2.8335,2.8341,2.8283,2.8283,2.8282,0,2.8103,2.8131,2.8155,2.8162,2.8181,2.8192,2.82,2.8214,2.8226,2.8242,2.825,2.8269,2.828,2.8295,2.8301,2.8291,2.8334,2.8321,2.8339,2.8339,2.8347,2.8347,2.8394,2.8354,2.8353,2.8353,2.8353,0,2.8134,2.8155,2.8165,2.8179,2.8203,2.8207,2.8231,2.8239,2.8252,2.8269,2.8269,2.8286,2.8293,2.8312,2.8317,2.8344,2.8348,2.8353,2.8354,2.8353,2.8353,2.836,2.8359,2.8355,2.8354,2.8354,2.8354,0,2.8161,2.8168,2.8194,2.821,2.8215,2.8232,2.8246,2.8261,2.8268,2.829,2.8296,2.8307,2.8329,2.8337,2.8363,2.8367,2.8398,2.8397,2.8393,2.8393,2.8411,2.841,2.8466,2.8474,2.8427,2.8428,2.8428,0,2.8181,2.8197,2.8215,2.8226,2.8235,2.8253,2.8266,2.8272,2.8285,2.8304,2.8318,2.8339,2.8357,2.8392,2.8403,2.8424,2.8424,2.8442,2.8427,2.8427,2.8426,2.8425,2.8428,2.8445,2.8446,2.8446,2.8446,0,2.8216,2.8219,2.8236,2.8255,2.827,2.8285,2.83,2.831,2.8319,2.8333,2.8355,2.8369,2.8397,2.8419,2.8441,2.8451,2.8451,2.8451,2.8457,2.8456,2.8453,2.8456,2.8401,2.845,2.8449,2.8449,2.8449,2.8449,2.824,2.8255,2.827,2.829,2.8302,2.8317,2.8333,2.8342,2.8361,2.8383,2.8386,2.8411,2.8428,2.8457,2.8469,2.8489,2.8484,2.8492,2.8494,2.8496,2.8498,2.845,2.8493,2.8493,2.8493,2.8493,2.8493,0,2.8276,2.8286,2.8304,2.8326,2.8342,2.834,2.8358,2.8371,2.8393,2.8409,2.8426,2.8453,2.8475,2.8489,2.8512,2.8526,2.8527,2.8532,2.8531,2.8534,2.85,2.8493,2.8531,2.8531,2.8531,2.8531,2.8531,2.8531,2.8296,2.8322,2.8327,2.836,2.837,2.8394,2.8404,2.8419,2.8431,2.8461,2.848,2.8489,2.8505,2.8529,2.855,2.8554,2.8563,2.8568,2.8572,2.854,2.8536,2.8532,2.8526,2.857,2.857,2.8604,2.8605,2.8605]},{"header":{"parameterUnit":"m.s-1","parameterCategory":1,"la1":30.2991,"la2":30.254,"lo1":-89.0895,"lo2":-89.0444,"dx":0.0017,"dy":0.0017,"nx":28,"ny":28,"refTime":"2023-01-10T15:00:00:Z","depth":0,"parameterNumber":3,"parameterNumberName":"V-component_of_WINDS"},"data":[0,0,0,0,0,0,0,0,0,0,0,0,0,0,0,0,0,0,0,0,0,0,0,0,0,0,0,0,0,0,0,0,0,0,0,0,0,0,0,0,0,0,0,0,0,0,0,0,0,0,0,0,0,0,0,0,0,0,3.4958,3.4958,0,3.4959,3.4959,3.4959,3.4929,3.4928,3.4927,3.4927,3.4926,3.4927,3.4927,0,0,0,0,0,0,0,0,0,0,0,0,0,3.4932,3.4933,3.4958,3.4958,3.4958,3.4959,3.4959,3.4959,3.4929,3.4928,3.4927,3.4926,3.4926,3.4927,3.4928,0,0,0,0,0,0,0,0,0,0,0,0,0,3.4939,3.4933,3.4958,3.4943,3.4942,3.4959,3.4959,3.4959,3.4929,3.4928,3.4927,3.4926,3.4926,3.4927,3.4928,3.4958,0,0,3.4931,3.4931,0,0,0,0,0,0,0,0,3.4939,3.494,3.4946,3.4945,3.4943,3.4943,3.4949,3.4959,3.493,3.4934,3.4927,3.4925,3.4932,3.4933,3.4936,3.4958,3.4958,3.4931,3.4932,3.4932,3.4933,0,0,0,0,0,0,0,3.4938,3.494,3.4958,3.4946,3.4944,3.4937,3.4937,3.4951,3.494,3.4934,3.4931,3.4932,3.4932,3.4935,3.4935,3.4958,3.4931,3.4932,3.4933,3.4933,3.501,3.5011,0,0,0,0,0,0,3.494,3.494,3.4958,3.4958,3.4938,3.4939,3.4938,3.4944,3.494,3.4938,3.4933,3.4931,3.4933,3.4934,3.4935,3.4974,3.4932,3.4933,3.4934,3.5008,3.501,3.5012,0,0,0,0,0,0,3.494,3.4942,3.4958,3.4949,3.495,3.494,3.4947,3.4945,3.4948,3.4939,3.4937,3.4938,3.4932,3.4934,3.4954,3.4973,3.4934,3.4935,3.5007,3.5009,3.5011,3.5049,0,0,0,0,0,0,3.4939,3.4942,3.4953,3.4949,3.4951,3.4976,3.4948,3.4945,3.495,3.4947,3.4944,3.4942,3.4932,3.4952,3.4955,3.4974,3.4936,3.5005,3.5008,3.501,3.5046,3.5052,3.5057,0,0,0,0,0,3.4938,3.4962,3.4954,3.4956,3.4964,3.4978,3.4979,3.4967,3.4951,3.4963,3.4958,3.4942,3.497,3.4955,3.4957,3.4977,3.5004,3.5007,3.501,3.5043,3.5051,3.5057,0,0,0,0,0,0,3.4967,3.4961,3.4952,3.4975,3.4977,3.4973,3.4986,3.4974,3.498,3.4977,3.4962,3.4961,3.4985,3.4982,3.4965,3.5008,3.4984,3.4988,3.5009,3.5016,3.5021,3.5022,3.4936,0,0,0,0,0,3.4976,3.4988,3.4982,3.5003,3.5005,3.4996,3.5001,3.4992,3.4993,3.4994,3.499,3.4992,3.5002,3.5008,3.5016,3.5045,3.5046,3.506,3.5066,3.5071,3.5074,3.5093,3.51,3.5022,3.5022,3.5022,0,0,3.4995,3.4994,3.5001,3.5009,3.501,3.5023,3.4997,3.501,3.502,3.4996,3.5016,3.5013,3.5014,3.504,3.5051,3.5039,3.5096,3.5074,3.5078,3.508,3.5097,3.5104,3.5111,3.5024,3.5024,3.5023,0,0,3.5037,3.5036,3.5056,3.5057,3.5059,3.5054,3.5059,3.5056,3.5055,3.5074,3.5057,3.5069,3.5085,3.5088,3.5091,3.5138,3.5125,3.5141,3.5171,3.5189,3.5196,3.5201,3.5221,3.5228,3.5145,3.5145,3.5145,0,3.506,3.5079,3.5067,3.5083,3.5089,3.5068,3.5089,3.5091,3.5096,3.51,3.5087,3.5109,3.5108,3.5136,3.5148,3.515,3.5157,3.5142,3.5196,3.5201,3.5206,3.5225,3.5232,3.5147,3.5147,3.5146,3.5146,0,3.5109,3.5123,3.5138,3.5145,3.5152,3.517,3.5162,3.517,3.5162,3.5158,3.518,3.5179,3.5188,3.5194,3.5184,3.5221,3.5214,3.5198,3.5175,3.5216,3.5233,3.524,3.515,3.5149,3.5149,3.5148,0,0,3.5167,3.517,3.5176,3.5181,3.5183,3.5194,3.5212,3.5223,3.5232,3.5236,3.5252,3.5268,3.5255,3.5259,3.525,3.5266,3.5307,3.5249,3.5249,3.5262,3.5352,3.5365,3.5373,3.5298,3.5299,3.53,3.5353,0,3.521,3.5243,3.5234,3.5267,3.5281,3.5264,3.528,3.5284,3.5282,3.5294,3.5291,3.5304,3.5284,3.5287,3.5302,3.5299,3.5326,3.5295,3.5315,3.5316,3.5317,3.5382,3.5395,3.5444,3.5359,3.536,3.5361,0,3.5264,3.5273,3.5308,3.5312,3.5317,3.5332,3.5343,3.5354,3.5359,3.5357,3.5364,3.5352,3.5372,3.5348,3.5377,3.5356,3.5364,3.5365,3.5366,3.5369,3.5342,3.5388,3.5459,3.5468,3.5371,3.537,3.5369,0,3.5307,3.5327,3.5352,3.5356,3.536,3.5371,3.5374,3.5378,3.5386,3.5395,3.5401,3.5412,3.5418,3.5428,3.5421,3.5403,3.5452,3.5426,3.5451,3.5452,3.5463,3.5463,3.5539,3.5465,3.5465,3.5465,3.5465,0,3.5356,3.5379,3.5372,3.5387,3.5413,3.5403,3.5429,3.5429,3.5433,3.5449,3.5434,3.5449,3.5438,3.5453,3.5447,3.5474,3.5476,3.5476,3.5474,3.5478,3.5479,3.5484,3.5481,3.5467,3.5466,3.5466,3.5465,0,3.5408,3.5404,3.543,3.5433,3.5434,3.5454,3.5457,3.5471,3.5469,3.549,3.5494,3.549,3.5507,3.5501,3.5518,3.5515,3.555,3.5542,3.5548,3.5547,3.5575,3.5573,3.5658,3.567,3.5587,3.5587,3.5588,0,3.5441,3.5458,3.5464,3.5475,3.5479,3.5495,3.5504,3.5496,3.5506,3.5515,3.553,3.5546,3.5558,3.5587,3.5586,3.56,3.5595,3.5624,3.5597,3.5601,3.5598,3.5598,3.5602,3.5629,3.563,3.5631,3.5632,0,3.55,3.5498,3.5512,3.5527,3.5539,3.5549,3.5559,3.5568,3.5561,3.5573,3.5591,3.5601,3.5621,3.5638,3.5652,3.5654,3.5643,3.564,3.5648,3.5652,3.5656,3.5658,3.5566,3.5638,3.5638,3.5637,3.5637,3.5637,3.5545,3.5561,3.557,3.5587,3.5594,3.5604,3.5619,3.562,3.5635,3.5652,3.5646,3.5668,3.5675,3.5693,3.5698,3.5715,3.5704,3.5714,3.5717,3.572,3.5725,3.5653,3.5717,3.5717,3.5717,3.5717,3.5717,0,3.5606,3.5611,3.5627,3.5643,3.5657,3.5646,3.5656,3.5669,3.5689,3.5697,3.5711,3.5734,3.5751,3.5753,3.577,3.5784,3.5779,3.5789,3.5789,3.579,3.5732,3.5726,3.5793,3.5793,3.5793,3.5793,3.5793,3.5793,3.564,3.5668,3.5668,3.57,3.5705,3.5728,3.5735,3.5745,3.5753,3.5779,3.5794,3.5796,3.5802,3.582,3.5837,3.5837,3.5845,3.5857,3.5855,3.5801,3.5794,3.5787,3.578,3.5858,3.5858,3.5912,3.5913,3.5913]}]]